Time,TemperatureF,DewpointF,PressureIn,WindDirection,WindDirectionDegrees,WindSpeedMPH,WindSpeedGustMPH,Humidity,HourlyPrecipIn,Conditions,Clouds,dailyrainin,SoftwareType,DateUTC
2013-01-29 00:00:00,58.6,55.0,30.03,SE,134,3.0,11.0,87,0.00,,,0.00,weatherlink.com 1.10,2013-01-29 06:00:00,
2013-01-29 00:15:00,58.5,55.0,30.03,SSE,154,5.0,12.0,88,0.00,,,0.00,weatherlink.com 1.10,2013-01-29 06:15:00,
2013-01-29 00:30:00,58.8,55.0,30.03,SSE,152,5.0,11.0,87,0.00,,,0.00,weatherlink.com 1.10,2013-01-29 06:30:00,
2013-01-29 00:45:00,58.8,55.0,30.02,SSE,163,4.0,8.0,87,0.00,,,0.00,weatherlink.com 1.10,2013-01-29 06:45:00,
2013-01-29 01:00:00,58.8,55.0,30.01,SSE,165,8.0,12.0,88,0.00,,,0.00,weatherlink.com 1.10,2013-01-29 07:00:00,
2013-01-29 01:15:00,58.9,55.0,30.01,SSE,152,3.0,11.0,88,0.00,,,0.00,weatherlink.com 1.10,2013-01-29 07:15:00,
2013-01-29 01:30:00,58.7,55.0,30.01,SSE,155,6.0,11.0,88,0.00,,,0.00,weatherlink.com 1.10,2013-01-29 07:30:00,
2013-01-29 01:45:00,58.7,56.0,30.00,SSE,148,6.0,11.0,89,0.00,,,0.00,weatherlink.com 1.10,2013-01-29 07:45:00,
2013-01-29 02:00:00,58.8,56.0,30.00,SSE,163,11.0,12.0,89,0.00,,,0.00,weatherlink.com 1.10,2013-01-29 08:00:00,
2013-01-29 02:15:00,58.7,56.0,29.99,South,172,5.0,11.0,89,0.00,,,0.00,weatherlink.com 1.10,2013-01-29 08:15:00,
2013-01-29 02:31:00,58.9,56.0,29.99,SE,144,4.0,13.0,89,0.00,,,0.00,weatherlink.com 1.10,2013-01-29 08:31:00,
2013-01-29 02:45:00,58.8,56.0,29.98,SSW,198,5.0,11.0,89,0.00,,,0.00,weatherlink.com 1.10,2013-01-29 08:45:00,
2013-01-29 03:00:00,58.6,56.0,29.98,South,172,7.0,11.0,90,0.00,,,0.00,weatherlink.com 1.10,2013-01-29 09:00:00,
2013-01-29 03:15:00,58.4,56.0,29.97,SSE,161,2.0,11.0,90,0.00,,,0.00,weatherlink.com 1.10,2013-01-29 09:15:00,
2013-01-29 03:30:00,58.4,56.0,29.97,SSE,154,3.0,10.0,90,0.00,,,0.00,weatherlink.com 1.10,2013-01-29 09:30:00,
2013-01-29 03:45:00,58.4,56.0,29.97,SSE,162,4.0,9.0,90,0.00,,,0.00,weatherlink.com 1.10,2013-01-29 09:45:00,
2013-01-29 04:00:00,58.6,56.0,29.96,South,177,7.0,11.0,90,0.00,,,0.00,weatherlink.com 1.10,2013-01-29 10:00:00,
2013-01-29 04:16:00,58.6,56.0,29.96,SSE,154,7.0,11.0,90,0.00,,,0.00,weatherlink.com 1.10,2013-01-29 10:16:00,
2013-01-29 04:31:00,58.4,56.0,29.97,South,172,2.0,8.0,90,0.00,,,0.00,weatherlink.com 1.10,2013-01-29 10:31:00,
2013-01-29 04:46:00,58.4,56.0,29.97,SSE,155,0.0,9.0,90,0.00,,,0.00,weatherlink.com 1.10,2013-01-29 10:46:00,
2013-01-29 05:01:00,58.4,56.0,29.97,SE,143,2.0,7.0,90,0.00,,,0.00,weatherlink.com 1.10,2013-01-29 11:01:00,
2013-01-29 05:16:00,58.4,56.0,29.97,South,172,1.0,7.0,90,0.00,,,0.00,weatherlink.com 1.10,2013-01-29 11:16:00,
2013-01-29 05:31:00,58.3,56.0,29.96,SSE,149,2.0,5.0,90,0.00,,,0.00,weatherlink.com 1.10,2013-01-29 11:31:00,
2013-01-29 05:46:00,58.3,56.0,29.96,SSE,155,2.0,6.0,91,0.00,,,0.00,weatherlink.com 1.10,2013-01-29 11:46:00,
2013-01-29 06:01:00,58.4,56.0,29.96,SSE,155,4.0,7.0,91,0.00,,,0.00,weatherlink.com 1.10,2013-01-29 12:01:00,
2013-01-29 06:16:00,58.5,56.0,29.96,SSE,167,3.0,9.0,91,0.00,,,0.00,weatherlink.com 1.10,2013-01-29 12:16:00,
2013-01-29 06:31:00,58.6,56.0,29.95,South,177,9.0,10.0,91,0.00,,,0.00,weatherlink.com 1.10,2013-01-29 12:31:00,
2013-01-29 06:46:00,58.9,57.0,29.95,SSE,147,2.0,12.0,92,0.00,,,0.00,weatherlink.com 1.10,2013-01-29 12:46:00,
2013-01-29 07:01:00,59.2,57.0,29.96,SSE,157,3.0,11.0,92,0.00,,,0.00,weatherlink.com 1.10,2013-01-29 13:01:00,
2013-01-29 07:16:00,59.7,57.0,29.95,SSE,156,7.0,12.0,92,0.00,,,0.00,weatherlink.com 1.10,2013-01-29 13:16:00,
2013-01-29 07:31:00,60.4,58.0,29.95,SW,217,9.0,15.0,91,0.00,,,0.00,weatherlink.com 1.10,2013-01-29 13:31:00,
2013-01-29 07:46:00,60.5,58.0,29.95,South,172,8.0,16.0,91,0.00,,,0.00,weatherlink.com 1.10,2013-01-29 13:46:00,
2013-01-29 08:01:00,60.5,58.0,29.95,SSE,167,8.0,19.0,91,0.00,,,0.00,weatherlink.com 1.10,2013-01-29 14:01:00,
2013-01-29 08:16:00,60.4,58.0,29.95,SSE,166,9.0,13.0,90,0.00,,,0.00,weatherlink.com 1.10,2013-01-29 14:16:00,
2013-01-29 08:31:00,60.7,58.0,29.94,SSE,151,10.0,16.0,90,0.00,,,0.00,weatherlink.com 1.10,2013-01-29 14:31:00,
2013-01-29 08:46:00,60.9,58.0,29.93,SE,140,2.0,14.0,90,0.00,,,0.00,weatherlink.com 1.10,2013-01-29 14:46:00,
2013-01-29 09:01:00,61.2,58.0,29.93,South,172,6.0,13.0,89,0.00,,,0.00,weatherlink.com 1.10,2013-01-29 15:01:00,
2013-01-29 09:16:00,61.6,58.0,29.92,South,172,3.0,12.0,88,0.00,,,0.00,weatherlink.com 1.10,2013-01-29 15:16:00,
2013-01-29 09:31:00,63.0,59.0,29.91,South,189,5.0,13.0,86,0.00,,,0.00,weatherlink.com 1.10,2013-01-29 15:31:00,
2013-01-29 09:46:00,63.0,59.0,29.91,South,177,9.0,14.0,85,0.00,,,0.00,weatherlink.com 1.10,2013-01-29 15:46:00,
2013-01-29 10:01:00,63.3,59.0,29.91,SSE,154,5.0,15.0,85,0.00,,,0.00,weatherlink.com 1.10,2013-01-29 16:01:00,
2013-01-29 10:16:00,63.8,59.0,29.90,SSE,162,10.0,16.0,84,0.00,,,0.00,weatherlink.com 1.10,2013-01-29 16:16:00,
2013-01-29 10:31:00,63.9,59.0,29.90,SE,139,4.0,16.0,84,0.00,,,0.00,weatherlink.com 1.10,2013-01-29 16:31:00,
2013-01-29 10:46:00,63.9,59.0,29.90,SW,215,4.0,11.0,84,0.00,,,0.00,weatherlink.com 1.10,2013-01-29 16:46:00,
2013-01-29 11:01:00,63.9,59.0,29.88,South,172,8.0,13.0,84,0.00,,,0.00,weatherlink.com 1.10,2013-01-29 17:01:00,
2013-01-29 11:16:00,64.2,59.0,29.87,SSE,164,7.0,12.0,83,0.00,,,0.00,weatherlink.com 1.10,2013-01-29 17:16:00,
2013-01-29 11:31:00,64.8,60.0,29.87,SSE,164,8.0,14.0,83,0.00,,,0.00,weatherlink.com 1.10,2013-01-29 17:31:00,
2013-01-29 11:47:00,65.3,59.0,29.86,SSE,159,3.0,13.0,81,0.00,,,0.00,weatherlink.com 1.10,2013-01-29 17:47:00,
2013-01-29 12:02:00,65.5,60.0,29.85,South,187,10.0,18.0,81,0.00,,,0.00,weatherlink.com 1.10,2013-01-29 18:02:00,
2013-01-29 12:16:00,65.6,59.0,29.83,WSW,244,7.0,19.0,80,0.00,,,0.00,weatherlink.com 1.10,2013-01-29 18:16:00,
2013-01-29 12:32:00,65.4,59.0,29.82,SSW,196,5.0,20.0,81,0.00,,,0.00,weatherlink.com 1.10,2013-01-29 18:32:00,
2013-01-29 12:47:00,65.7,60.0,29.80,SSE,156,6.0,18.0,81,0.00,,,0.00,weatherlink.com 1.10,2013-01-29 18:47:00,
2013-01-29 13:02:00,65.8,60.0,29.79,SE,143,6.0,16.0,81,0.00,,,0.00,weatherlink.com 1.10,2013-01-29 19:02:00,
2013-01-29 13:17:00,66.0,60.0,29.78,SE,144,5.0,15.0,80,0.00,,,0.00,weatherlink.com 1.10,2013-01-29 19:17:00,
2013-01-29 13:32:00,66.6,60.0,29.77,South,182,10.0,18.0,80,0.00,,,0.00,weatherlink.com 1.10,2013-01-29 19:32:00,
2013-01-29 13:47:00,66.6,60.0,29.77,South,182,8.0,17.0,79,0.00,,,0.00,weatherlink.com 1.10,2013-01-29 19:47:00,
2013-01-29 14:02:00,67.2,60.0,29.76,SSE,153,3.0,15.0,78,0.00,,,0.00,weatherlink.com 1.10,2013-01-29 20:02:00,
2013-01-29 14:17:00,67.0,60.0,29.75,SE,133,5.0,12.0,79,0.00,,,0.00,weatherlink.com 1.10,2013-01-29 20:17:00,
2013-01-29 14:32:00,67.0,60.0,29.74,SE,132,5.0,15.0,79,0.00,,,0.00,weatherlink.com 1.10,2013-01-29 20:32:00,
2013-01-29 14:47:00,67.3,60.0,29.73,SSE,149,4.0,15.0,78,0.00,,,0.00,weatherlink.com 1.10,2013-01-29 20:47:00,
2013-01-29 15:02:00,67.3,60.0,29.72,South,172,9.0,17.0,78,0.00,,,0.00,weatherlink.com 1.10,2013-01-29 21:02:00,
2013-01-29 15:17:00,67.4,60.0,29.72,South,177,11.0,15.0,78,0.00,,,0.00,weatherlink.com 1.10,2013-01-29 21:17:00,
2013-01-29 15:32:00,67.8,60.0,29.71,SE,141,10.0,15.0,77,0.00,,,0.00,weatherlink.com 1.10,2013-01-29 21:32:00,
2013-01-29 15:47:00,67.8,60.0,29.70,SE,137,5.0,15.0,77,0.00,,,0.00,weatherlink.com 1.10,2013-01-29 21:47:00,
2013-01-29 16:02:00,67.6,60.0,29.71,SSE,168,6.0,17.0,77,0.00,,,0.00,weatherlink.com 1.10,2013-01-29 22:02:00,
2013-01-29 16:17:00,67.3,60.0,29.70,SSE,157,3.0,11.0,77,0.00,,,0.00,weatherlink.com 1.10,2013-01-29 22:17:00,
2013-01-29 16:32:00,66.6,60.0,29.70,SSE,150,6.0,12.0,79,0.00,,,0.00,weatherlink.com 1.10,2013-01-29 22:32:00,
2013-01-29 16:47:00,66.0,60.0,29.69,SE,144,4.0,13.0,80,0.00,,,0.00,weatherlink.com 1.10,2013-01-29 22:47:00,
2013-01-29 17:03:00,66.2,60.0,29.68,SSW,192,3.0,9.0,80,0.00,,,0.00,weatherlink.com 1.10,2013-01-29 23:03:00,
2013-01-29 17:18:00,66.4,60.0,29.69,South,172,4.0,10.0,80,0.00,,,0.00,weatherlink.com 1.10,2013-01-29 23:18:00,
2013-01-29 17:32:00,66.3,60.0,29.69,SE,142,4.0,10.0,80,0.00,,,0.00,weatherlink.com 1.10,2013-01-29 23:32:00,
2013-01-29 17:47:00,66.3,60.0,29.68,SE,129,3.0,9.0,81,0.00,,,0.00,weatherlink.com 1.10,2013-01-29 23:47:00,
2013-01-29 18:02:00,66.1,60.0,29.67,SSE,151,2.0,8.0,81,0.00,,,0.00,weatherlink.com 1.10,2013-01-30 00:02:00,
2013-01-29 18:17:00,66.0,60.0,29.66,SE,134,2.0,7.0,81,0.00,,,0.00,weatherlink.com 1.10,2013-01-30 00:17:00,
2013-01-29 18:32:00,65.6,60.0,29.64,SSW,203,7.0,7.0,82,0.00,,,0.00,weatherlink.com 1.10,2013-01-30 00:32:00,
2013-01-29 18:48:00,65.4,60.0,29.62,ESE,105,2.0,7.0,83,0.00,,,0.00,weatherlink.com 1.10,2013-01-30 00:48:00,
2013-01-29 19:02:00,65.9,61.0,29.61,South,182,3.0,11.0,83,0.00,,,0.00,weatherlink.com 1.10,2013-01-30 01:02:00,
2013-01-29 19:17:00,66.2,61.0,29.59,SSE,167,3.0,13.0,82,0.00,,,0.00,weatherlink.com 1.10,2013-01-30 01:17:00,
2013-01-29 19:33:00,66.1,61.0,29.58,SE,129,3.0,8.0,82,0.00,,,0.00,weatherlink.com 1.10,2013-01-30 01:33:00,
2013-01-29 19:48:00,66.7,61.0,29.56,SE,142,5.0,16.0,81,0.00,,,0.00,weatherlink.com 1.10,2013-01-30 01:48:00,
2013-01-29 20:03:00,67.3,61.0,29.55,SE,130,7.0,15.0,81,0.00,,,0.00,weatherlink.com 1.10,2013-01-30 02:03:00,
2013-01-29 20:18:00,67.8,61.0,29.54,East,94,4.0,16.0,80,0.00,,,0.00,weatherlink.com 1.10,2013-01-30 02:18:00,
2013-01-29 20:34:00,68.8,62.0,29.52,South,182,9.0,20.0,78,0.00,,,0.00,weatherlink.com 1.10,2013-01-30 02:34:00,
2013-01-29 20:48:00,69.2,62.0,29.51,SSE,155,5.0,22.0,78,0.00,,,0.00,weatherlink.com 1.10,2013-01-30 02:48:00,
2013-01-29 21:03:00,69.5,62.0,29.51,South,172,11.0,22.0,77,0.00,,,0.00,weatherlink.com 1.10,2013-01-30 03:03:00,
2013-01-29 21:18:00,69.9,62.0,29.50,SSE,161,10.0,24.0,77,0.00,,,0.00,weatherlink.com 1.10,2013-01-30 03:18:00,
2013-01-29 21:33:00,69.9,62.0,29.49,SSE,160,12.0,24.0,77,0.00,,,0.00,weatherlink.com 1.10,2013-01-30 03:33:00,
2013-01-29 21:48:00,69.9,62.0,29.47,East,97,6.0,19.0,77,0.00,,,0.00,weatherlink.com 1.10,2013-01-30 03:48:00,
2013-01-29 22:03:00,70.2,62.0,29.45,SSE,163,10.0,24.0,76,0.00,,,0.00,weatherlink.com 1.10,2013-01-30 04:03:00,
2013-01-29 22:18:00,70.3,62.0,29.43,ENE,60,10.0,26.0,76,0.00,,,0.00,weatherlink.com 1.10,2013-01-30 04:18:00,
2013-01-29 22:33:00,70.2,62.0,29.44,SSE,152,10.0,25.0,76,0.00,,,0.00,weatherlink.com 1.10,2013-01-30 04:33:00,
2013-01-29 22:48:00,70.2,62.0,29.42,SSE,161,6.0,24.0,76,0.00,,,0.00,weatherlink.com 1.10,2013-01-30 04:48:00,
2013-01-29 23:03:00,69.8,63.0,29.46,South,182,11.0,20.0,78,0.00,,,0.00,weatherlink.com 1.10,2013-01-30 05:03:00,
2013-01-29 23:18:00,62.1,56.0,29.45,North,3,17.0,24.0,80,0.05,,,0.05,weatherlink.com 1.10,2013-01-30 05:18:00,
2013-01-29 23:33:00,55.4,53.0,29.54,West,262,7.0,17.0,90,0.15,,,0.15,weatherlink.com 1.10,2013-01-30 05:33:00,
2013-01-29 23:48:00,53.7,52.0,29.50,WNW,295,14.0,21.0,94,0.24,,,0.24,weatherlink.com 1.10,2013-01-30 05:48:00,